Location: Aix-en-Ergny
(50.5839°N, 1.9996°E)
Time: 19:55:13
(UTC+00:00)

Cosmos 1190 Rocket - Pass Details

Date: 23 October 2019
Orbit: 758 x 779 km, 74.1° (Epoch: 17 November)

Event Time Altitude Azimuth Distance (km) Brightness Sun altitude
Exits shadow 04:29:55 36° 250° (WSW) 1,209 4.5 -19.2°
Maximum altitude 04:31:37 50° 300° (WNW) 984 4.2 -19.0°
Drops below altitude 10° 04:36:46 10° 16° (NNE) 2,325 6.7 -18.2°
Sets 04:39:13 0° 22° (NNE) 3,253 7.6 -17.8°
